Simultaneous Nadir Overpasses (SNOs) Predictions

Prediction of SNOs between GOES-16 and LANDSAT-8 Satellite Orbit:

Table of predicted SNOs for the next 14.0 days since TLE Epoch: 12/7/2019
Index Date Time (GOES-16) GOES-16 Lat,Lon LANDSAT-8 Lat,Lon Distance(km) Time Diff (sec)
1 12/08/2019 02:57:44 0.01, -75.19 0.72, -71.70 396.83 80
2 12/08/2019 15:19:00 -0.01, -75.21 0.34, -76.86 188.17 80
3 12/10/2019 15:09:28 -0.01, -75.21 -0.26, -73.90 148.70 80
4 12/11/2019 03:30:53 0.01, -75.20 -0.80, -79.10 442.65 80
5 12/12/2019 14:57:17 -0.01, -75.22 -0.92, -70.95 485.63 80
6 12/13/2019 03:18:41 0.01, -75.21 -0.20, -76.14 105.67 80
7 12/15/2019 03:03:49 0.00, -75.22 0.41, -73.18 231.78 80
8 12/15/2019 15:25:05 -0.00, -75.23 0.65, -78.34 353.12 80
9 12/17/2019 15:12:53 0.02, -75.25 0.05, -75.38 14.88 80
10 12/19/2019 15:03:21 0.03, -75.27 -0.56, -72.42 323.88 80
11 12/20/2019 03:24:45 -0.02, -75.27 -0.55, -77.61 266.79 80




NCC Satellite Simultaneous Nadir Overpasses (SNOs) Prediction Service
